Retour au catalogue

COSMOS 2573

ActifNavigationSSO
NORAD 58614·PAYLOAD·🇷🇺 Russia

Lancé Dec 21, 2023 depuis Plesetsk Cosmodrome

Loading…

Prochains Passages (prochaines 24 heures)

TLE

FraisSource: Space-Track

Époque: Sep 14, 2026, 14:36 UTC

1 58614U 23201A   26257.60867627  .00002760  00000-0  11234-3 0  9995
2 58614  97.6358 208.7856 0002995  83.3651 276.7928 15.25393843152115

Suivez COSMOS 2573 en temps réel avec AllMySat

Download on the App Store